| time (UTC) | temp C | wind direction | speed KPH | gust KPH | rain 1hr cm | rain 24hr cm | rain mn cm | humidity % | barometer mb |
| 20260508094608 | 12 | 183 | 3.2 | 12.9 | 0.00 | 0.00 | 0.00 | 82 | 1016.9 |
| 20260508094108 | 12 | 222 | 3.2 | 12.9 | 0.00 | 0.00 | 0.00 | 82 | 1017.0 |
| 20260508093107 | 12 | 174 | 1.6 | 11.3 | 0.00 | 0.00 | 0.00 | 83 | 1016.9 |
| 20260508091607 | 12 | 160 | 1.6 | 4.8 | 0.00 | 0.00 | 0.00 | 85 | 1017.0 |
| 20260508091107 | 12 | 168 | 3.2 | 9.7 | 0.00 | 0.00 | 0.00 | 85 | 1017.0 |
| 20260508090107 | 11 | 172 | 4.8 | 9.7 | 0.00 | 0.00 | 0.00 | 86 | 1017.0 |
| 20260508084608 | 11 | 187 | 1.6 | 8.0 | 0.00 | 0.00 | 0.00 | 88 | 1017.0 |
| 20260508084108 | 11 | 159 | 3.2 | 8.0 | 0.00 | 0.00 | 0.00 | 87 | 1017.0 |
| 20260508083607 | 11 | 150 | 3.2 | 8.0 | 0.00 | 0.00 | 0.00 | 88 | 1017.0 |
| 20260508083107 | 11 | 171 | 3.2 | 8.0 | 0.00 | 0.00 | 0.00 | 88 | 1016.9 |
| 20260508081607 | 10 | 160 | 3.2 | 11.3 | 0.00 | 0.00 | 0.00 | 88 | 1016.8 |
| 20260508081107 | 10 | 151 | 6.4 | 12.9 | 0.00 | 0.00 | 0.00 | 89 | 1016.8 |
| 20260508080108 | 10 | 166 | 4.8 | 12.9 | 0.00 | 0.00 | 0.00 | 90 | 1016.7 |
| 20260508073607 | 10 | 143 | 1.6 | 4.8 | 0.00 | 0.00 | 0.00 | 89 | 1016.7 |
| 20260508073107 | 10 | 165 | 1.6 | 4.8 | 0.00 | 0.00 | 0.00 | 89 | 1016.6 |
| 20260508071607 | 10 | 156 | 3.2 | 8.0 | 0.00 | 0.00 | 0.00 | 89 | 1016.6 |
| 20260508071106 | 10 | 169 | 1.6 | 8.0 | 0.00 | 0.00 | 0.00 | 89 | 1016.6 |
| 20260508070608 | 10 | 210 | 1.6 | 4.8 | 0.00 | 0.00 | 0.00 | 89 | 1016.5 |
| 20260508064607 | 10 | 174 | 1.6 | 4.8 | 0.00 | 0.00 | 0.00 | 88 | 1016.3 |
| 20260508063607 | 10 | 142 | 1.6 | 4.8 | 0.00 | 0.00 | 0.00 | 87 | 1016.2 |
| 20260508063107 | 10 | 130 | 1.6 | 4.8 | 0.00 | 0.00 | 0.00 | 87 | 1016.2 |
| 20260508061607 | 10 | 162 | 3.2 | 8.0 | 0.00 | 0.00 | 0.00 | 88 | 1016.0 |
| 20260508061107 | 10 | 154 | 3.2 | 8.0 | 0.00 | 0.00 | 0.00 | 87 | 1016.0 |
| 20260508060607 | 10 | 140 | 1.6 | 4.8 | 0.00 | 0.00 | 0.00 | 88 | 1016.0 |
| 20260508054106 | 10 | 166 | 1.6 | 4.8 | 0.00 | 0.00 | 0.00 | 88 | 1015.8 |
| 20260508053607 | 10 | 122 | 3.2 | 4.8 | 0.00 | 0.00 | 0.00 | 88 | 1015.8 |
| 20260508051607 | 9 | 159 | 3.2 | 11.3 | 0.00 | 0.00 | 0.00 | 88 | 1015.6 |
| 20260508051107 | 9 | 160 | 1.6 | 4.8 | 0.00 | 0.00 | 0.00 | 88 | 1015.6 |
| 20260508050607 | 9 | 162 | 1.6 | 4.8 | 0.00 | 0.00 | 0.00 | 87 | 1015.7 |
| 20260508044607 | 10 | 140 | 3.2 | 8.0 | 0.00 | 0.00 | 0.00 | 87 | 1015.5 |
| 20260508044107 | 10 | 123 | 3.2 | 8.0 | 0.00 | 0.00 | 0.00 | 87 | 1015.5 |
| 20260508043607 | 10 | 135 | 4.8 | 8.0 | 0.00 | 0.00 | 0.00 | 87 | 1015.5 |
| 20260508043108 | 10 | 132 | 3.2 | 4.8 | 0.00 | 0.00 | 0.00 | 86 | 1015.5 |
| 20260508041608 | 10 | 129 | 1.6 | 4.8 | 0.00 | 0.00 | 0.00 | 86 | 1015.6 |
| 20260508041107 | 10 | 129 | 0.0 | 4.8 | 0.00 | 0.00 | 0.00 | 86 | 1015.5 |
| 20260508040607 | 10 | 121 | 1.6 | 4.8 | 0.00 | 0.00 | 0.00 | 86 | 1015.5 |
| 20260508040108 | 10 | 132 | 1.6 | 4.8 | 0.00 | 0.00 | 0.00 | 86 | 1015.4 |
| 20260508034607 | 10 | 123 | 3.2 | 4.8 | 0.00 | 0.00 | 0.00 | 85 | 1015.4 |
| 20260508034108 | 10 | 142 | 1.6 | 8.0 | 0.00 | 0.00 | 0.00 | 85 | 1015.4 |
| 20260508033607 | 10 | 134 | 3.2 | 8.0 | 0.00 | 0.00 | 0.00 | 85 | 1015.4 |
| 20260508033107 | 10 | 159 | 3.2 | 12.9 | 0.00 | 0.00 | 0.00 | 85 | 1015.4 |
| 20260508031607 | 10 | 169 | 3.2 | 9.7 | 0.00 | 0.00 | 0.00 | 85 | 1015.4 |
| 20260508031107 | 10 | 149 | 3.2 | 4.8 | 0.00 | 0.00 | 0.00 | 85 | 1015.3 |
| 20260508030108 | 10 | 164 | 0.0 | 12.9 | 0.00 | 0.00 | 0.00 | 85 | 1015.3 |
| 20260508024107 | 10 | 137 | 1.6 | 4.8 | 0.00 | 0.00 | 0.00 | 85 | 1015.3 |
| 20260508023607 | 10 | 138 | 1.6 | 4.8 | 0.00 | 0.00 | 0.00 | 84 | 1015.4 |
| 20260508023108 | 10 | 61 | 0.0 | 3.2 | 0.00 | 0.00 | 0.00 | 84 | 1015.4 |
| 20260508021107 | 10 | 93 | 1.6 | 4.8 | 0.00 | 0.00 | 0.00 | 83 | 1015.3 |
| 20260508020608 | 10 | 86 | 3.2 | 4.8 | 0.00 | 0.00 | 0.00 | 83 | 1015.2 |
| 20260508020106 | 10 | 113 | 0.0 | 4.8 | 0.00 | 0.00 | 0.00 | 83 | 1015.2 |
| 20260508014607 | 10 | 151 | 4.8 | 12.9 | 0.00 | 0.00 | 0.00 | 82 | 1015.2 |
| 20260508014107 | 10 | 161 | 4.8 | 11.3 | 0.00 | 0.00 | 0.00 | 82 | 1015.2 |
| 20260508013607 | 10 | 147 | 4.8 | 11.3 | 0.00 | 0.00 | 0.00 | 82 | 1015.3 |
| 20260508013107 | 10 | 154 | 4.8 | 14.5 | 0.00 | 0.00 | 0.00 | 82 | 1015.3 |
| 20260508011108 | 10 | 161 | 1.6 | 9.7 | 0.00 | 0.00 | 0.00 | 83 | 1015.4 |
| 20260508010608 | 10 | 165 | 3.2 | 9.7 | 0.00 | 0.00 | 0.00 | 83 | 1015.4 |
| 20260508010107 | 10 | 167 | 3.2 | 9.7 | 0.00 | 0.00 | 0.00 | 83 | 1015.4 |
| 20260508004606 | 10 | 158 | 0.0 | 4.8 | 0.00 | 0.00 | 0.00 | 84 | 1015.4 |
| 20260508004108 | 10 | 163 | 0.0 | 4.8 | 0.00 | 0.00 | 0.00 | 84 | 1015.4 |
| 20260508003107 | 9 | 163 | 3.2 | 4.8 | 0.00 | 0.00 | 0.00 | 84 | 1015.4 |
| 20260508001607 | 9 | 139 | 3.2 | 8.0 | 0.00 | 0.00 | 0.00 | 84 | 1015.5 |
| 20260508001107 | 9 | 146 | 3.2 | 8.0 | 0.00 | 0.00 | 0.00 | 85 | 1015.6 |
| 20260508000606 | 9 | 152 | 3.2 | 8.0 | 0.00 | 0.00 | 0.00 | 85 | 1015.6 |
| 20260508000107 | 9 | 150 | 1.6 | 8.0 | 0.00 | 0.00 | 0.00 | 85 | 1015.6 |
| 20260507234607 | 9 | 113 | 3.2 | 9.7 | 0.00 | 0.00 | 0.00 | 85 | 1015.5 |
| 20260507234107 | 9 | 149 | 1.6 | 8.0 | 0.00 | 0.00 | 0.00 | 85 | 1015.6 |
| 20260507233608 | 9 | 114 | 3.2 | 4.8 | 0.00 | 0.00 | 0.00 | 85 | 1015.6 |
| 20260507233106 | 9 | 142 | 1.6 | 4.8 | 0.00 | 0.00 | 0.00 | 85 | 1015.6 |
| 20260507231107 | 9 | 134 | 3.2 | 9.7 | 0.00 | 0.00 | 0.00 | 86 | 1015.5 |
| 20260507230606 | 9 | 137 | 3.2 | 9.7 | 0.00 | 0.00 | 0.00 | 86 | 1015.5 |
| 20260507230107 | 9 | 135 | 3.2 | 11.3 | 0.00 | 0.00 | 0.00 | 86 | 1015.5 |
| 20260507224606 | 9 | 143 | 3.2 | 8.0 | 0.00 | 0.00 | 0.00 | 86 | 1015.5 |
| 20260507223606 | 9 | 141 | 4.8 | 8.0 | 0.00 | 0.00 | 0.00 | 87 | 1015.6 |
| 20260507223107 | 9 | 141 | 3.2 | 9.7 | 0.00 | 0.00 | 0.00 | 87 | 1015.5 |
| 20260507221607 | 9 | 132 | 6.4 | 12.9 | 0.00 | 0.00 | 0.00 | 87 | 1015.5 |
| 20260507221107 | 9 | 151 | 3.2 | 8.0 | 0.00 | 0.00 | 0.00 | 86 | 1015.5 |
| 20260507220608 | 9 | 154 | 3.2 | 12.9 | 0.00 | 0.00 | 0.00 | 86 | 1015.5 |
| 20260507220107 | 9 | 147 | 4.8 | 12.9 | 0.00 | 0.00 | 0.00 | 86 | 1015.5 |
| 20260507214607 | 10 | 149 | 4.8 | 12.9 | 0.00 | 0.00 | 0.00 | 86 | 1015.4 |
| 20260507214106 | 10 | 150 | 4.8 | 12.9 | 0.00 | 0.00 | 0.00 | 85 | 1015.4 |
| 20260507213607 | 10 | 151 | 6.4 | 12.9 | 0.00 | 0.00 | 0.00 | 85 | 1015.4 |
| 20260507213106 | 10 | 148 | 4.8 | 12.9 | 0.00 | 0.00 | 0.00 | 85 | 1015.4 |
| 20260507211106 | 10 | 149 | 6.4 | 14.5 | 0.00 | 0.00 | 0.00 | 84 | 1015.4 |
| 20260507210607 | 10 | 154 | 4.8 | 11.3 | 0.00 | 0.00 | 0.00 | 84 | 1015.3 |
| 20260507210107 | 10 | 140 | 4.8 | 11.3 | 0.00 | 0.00 | 0.00 | 84 | 1015.4 |
| 20260507204607 | 10 | 145 | 4.8 | 12.9 | 0.00 | 0.00 | 0.00 | 83 | 1015.4 |
| 20260507204108 | 10 | 145 | 3.2 | 12.9 | 0.00 | 0.00 | 0.00 | 83 | 1015.5 |
| 20260507203607 | 10 | 143 | 4.8 | 12.9 | 0.00 | 0.00 | 0.00 | 83 | 1015.5 |
| 20260507203107 | 10 | 145 | 4.8 | 12.9 | 0.00 | 0.00 | 0.00 | 82 | 1015.4 |
| 20260507201607 | 10 | 140 | 4.8 | 14.5 | 0.00 | 0.00 | 0.00 | 81 | 1015.3 |
| 20260507201107 | 10 | 136 | 8.0 | 14.5 | 0.00 | 0.00 | 0.00 | 80 | 1015.2 |
| 20260507200607 | 10 | 142 | 3.2 | 12.9 | 0.00 | 0.00 | 0.00 | 80 | 1015.2 |
| 20260507200107 | 10 | 133 | 3.2 | 8.0 | 0.00 | 0.00 | 0.00 | 79 | 1015.2 |
| 20260507194608 | 11 | 144 | 3.2 | 12.9 | 0.00 | 0.00 | 0.00 | 78 | 1015.0 |
| 20260507194107 | 11 | 144 | 4.8 | 12.9 | 0.00 | 0.00 | 0.00 | 77 | 1015.0 |
| 20260507193607 | 11 | 139 | 4.8 | 12.9 | 0.00 | 0.00 | 0.00 | 77 | 1015.0 |
| 20260507193107 | 11 | 152 | 4.8 | 19.3 | 0.00 | 0.00 | 0.00 | 76 | 1014.9 |
| 20260507191608 | 11 | 158 | 6.4 | 19.3 | 0.00 | 0.00 | 0.00 | 75 | 1014.8 |
| 20260507191107 | 11 | 143 | 9.7 | 19.3 | 0.00 | 0.00 | 0.00 | 74 | 1014.8 |
| 20260507190608 | 12 | 147 | 8.0 | 19.3 | 0.00 | 0.00 | 0.00 | 74 | 1014.8 |
| 20260507190107 | 12 | 152 | 8.0 | 20.9 | 0.00 | 0.00 | 0.00 | 73 | 1014.7 |
| 20260507184608 | 12 | 153 | 8.0 | 20.9 | 0.00 | 0.00 | 0.00 | 75 | 1014.6 |
| 20260507184107 | 12 | 125 | 8.0 | 25.7 | 0.00 | 0.00 | 0.00 | 74 | 1014.5 |
| 20260507183107 | 12 | 133 | 14.5 | 24.1 | 0.00 | 0.00 | 0.00 | 73 | 1014.4 |
| 20260507181607 | 12 | 125 | 11.3 | 24.1 | 0.00 | 0.00 | 0.00 | 72 | 1014.3 |
| 20260507181107 | 12 | 132 | 12.9 | 22.5 | 0.00 | 0.00 | 0.00 | 73 | 1014.2 |
| 20260507180106 | 12 | 131 | 11.3 | 25.7 | 0.00 | 0.00 | 0.00 | 75 | 1014.3 |
| 20260507174608 | 12 | 137 | 12.9 | 24.1 | 0.00 | 0.00 | 0.00 | 76 | 1014.4 |
| 20260507174106 | 12 | 120 | 12.9 | 24.1 | 0.00 | 0.00 | 0.00 | 75 | 1014.3 |
| 20260507173607 | 12 | 127 | 9.7 | 22.5 | 0.00 | 0.00 | 0.00 | 75 | 1014.4 |
| 20260507171606 | 12 | 150 | 11.3 | 24.1 | 0.00 | 0.00 | 0.00 | 75 | 1014.5 |
| 20260507171107 | 12 | 116 | 8.0 | 24.1 | 0.00 | 0.00 | 0.00 | 75 | 1014.5 |
| 20260507170608 | 12 | 126 | 12.9 | 20.9 | 0.00 | 0.00 | 0.00 | 74 | 1014.5 |
| 20260507170107 | 12 | 128 | 11.3 | 25.7 | 0.00 | 0.00 | 0.00 | 74 | 1014.5 |
| 20260507164606 | 12 | 128 | 11.3 | 29.0 | 0.00 | 0.00 | 0.00 | 74 | 1014.4 |
| 20260507163607 | 12 | 121 | 14.5 | 24.1 | 0.00 | 0.00 | 0.00 | 73 | 1014.5 |
| 20260507163107 | 12 | 130 | 9.7 | 27.4 | 0.00 | 0.00 | 0.00 | 74 | 1014.5 |
| 20260507161607 | 12 | 124 | 14.5 | 29.0 | 0.00 | 0.00 | 0.00 | 74 | 1014.6 |
| 20260507161106 | 12 | 112 | 14.5 | 29.0 | 0.00 | 0.00 | 0.00 | 73 | 1014.6 |
| 20260507160607 | 12 | 126 | 14.5 | 29.0 | 0.00 | 0.00 | 0.00 | 74 | 1014.6 |
| 20260507154607 | 12 | 148 | 12.9 | 25.7 | 0.00 | 0.00 | 0.00 | 73 | 1014.7 |
| 20260507154106 | 12 | 121 | 9.7 | 20.9 | 0.00 | 0.00 | 0.00 | 73 | 1014.7 |
| 20260507153608 | 12 | 142 | 14.5 | 24.1 | 0.00 | 0.00 | 0.00 | 73 | 1014.7 |
| 20260507153106 | 12 | 125 | 14.5 | 32.2 | 0.00 | 0.00 | 0.00 | 73 | 1014.7 |
| 20260507151607 | 12 | 118 | 16.1 | 27.4 | 0.00 | 0.00 | 0.00 | 71 | 1014.7 |
| 20260507151106 | 13 | 129 | 14.5 | 27.4 | 0.00 | 0.00 | 0.00 | 71 | 1014.7 |
| 20260507150607 | 13 | 128 | 11.3 | 27.4 | 0.00 | 0.00 | 0.00 | 72 | 1014.7 |
| 20260507150106 | 13 | 140 | 14.5 | 27.4 | 0.00 | 0.00 | 0.00 | 70 | 1014.7 |
| 20260507144607 | 13 | 131 | 11.3 | 22.5 | 0.00 | 0.00 | 0.00 | 70 | 1014.7 |
| 20260507143607 | 13 | 115 | 9.7 | 22.5 | 0.00 | 0.00 | 0.00 | 69 | 1014.8 |
| 20260507141107 | 13 | 129 | 11.3 | 29.0 | 0.00 | 0.00 | 0.00 | 67 | 1015.0 |
| 20260507140607 | 13 | 131 | 11.3 | 29.0 | 0.00 | 0.00 | 0.00 | 67 | 1014.9 |
| 20260507140107 | 14 | 134 | 11.3 | 27.4 | 0.00 | 0.00 | 0.00 | 67 | 1015.0 |
| 20260507134607 | 13 | 137 | 9.7 | 22.5 | 0.00 | 0.00 | 0.00 | 66 | 1015.0 |
| 20260507134107 | 13 | 123 | 14.5 | 22.5 | 0.00 | 0.00 | 0.00 | 67 | 1015.0 |
| 20260507133607 | 13 | 114 | 9.7 | 22.5 | 0.00 | 0.00 | 0.00 | 67 | 1015.0 |
| 20260507133106 | 13 | 120 | 11.3 | 20.9 | 0.00 | 0.00 | 0.00 | 65 | 1015.0 |
| 20260507131607 | 13 | 121 | 11.3 | 24.1 | 0.00 | 0.00 | 0.00 | 66 | 1015.1 |
| 20260507131108 | 13 | 127 | 12.9 | 24.1 | 0.00 | 0.00 | 0.00 | 66 | 1015.1 |
| 20260507130606 | 13 | 134 | 12.9 | 24.1 | 0.00 | 0.00 | 0.00 | 65 | 1015.1 |
| 20260507130107 | 13 | 148 | 12.9 | 24.1 | 0.00 | 0.00 | 0.00 | 63 | 1015.1 |
| 20260507124607 | 13 | 116 | 11.3 | 22.5 | 0.00 | 0.00 | 0.00 | 64 | 1015.1 |
| 20260507124108 | 13 | 140 | 8.0 | 19.3 | 0.00 | 0.00 | 0.00 | 64 | 1015.1 |
| 20260507123607 | 13 | 112 | 8.0 | 19.3 | 0.00 | 0.00 | 0.00 | 65 | 1015.2 |
| 20260507123107 | 13 | 147 | 11.3 | 19.3 | 0.00 | 0.00 | 0.00 | 63 | 1015.2 |
| 20260507121606 | 13 | 147 | 8.0 | 19.3 | 0.00 | 0.00 | 0.00 | 64 | 1015.3 |
| 20260507120607 | 13 | 125 | 8.0 | 14.5 | 0.00 | 0.00 | 0.00 | 63 | 1015.3 |
| 20260507120108 | 13 | 132 | 8.0 | 19.3 | 0.00 | 0.00 | 0.00 | 61 | 1015.3 |
| 20260507114606 | 13 | 123 | 9.7 | 19.3 | 0.00 | 0.00 | 0.00 | 62 | 1015.4 |
| 20260507113107 | 13 | 125 | 9.7 | 16.1 | 0.00 | 0.00 | 0.00 | 60 | 1015.4 |
| 20260507111606 | 13 | 89 | 9.7 | 19.3 | 0.00 | 0.00 | 0.00 | 61 | 1015.5 |
| 20260507111107 | 13 | 128 | 9.7 | 19.3 | 0.00 | 0.00 | 0.00 | 60 | 1015.5 |
| 20260507110607 | 13 | 118 | 4.8 | 14.5 | 0.00 | 0.00 | 0.00 | 62 | 1015.6 |
| 20260507110108 | 13 | 156 | 4.8 | 14.5 | 0.00 | 0.00 | 0.00 | 58 | 1015.6 |
| 20260507104607 | 13 | 168 | 1.6 | 12.9 | 0.00 | 0.00 | 0.00 | 56 | 1015.7 |
| 20260507104107 | 13 | 188 | 4.8 | 12.9 | 0.00 | 0.00 | 0.00 | 57 | 1015.7 |
| 20260507103607 | 13 | 202 | 3.2 | 14.5 | 0.00 | 0.00 | 0.00 | 57 | 1015.7 |
| 20260507103107 | 13 | 206 | 6.4 | 16.1 | 0.00 | 0.00 | 0.00 | 57 | 1015.8 |
| 20260507101108 | 13 | 127 | 4.8 | 16.1 | 0.00 | 0.00 | 0.00 | 61 | 1015.7 |
| 20260507100607 | 12 | 145 | 4.8 | 16.1 | 0.00 | 0.00 | 0.00 | 61 | 1015.8 |
| 20260507100107 | 12 | 149 | 8.0 | 16.1 | 0.00 | 0.00 | 0.00 | 62 | 1015.8 |